Dewpoint
10 10 10 10 10 10 9 9 9 9 9 7 4 2 1 -8 -16 -28 -31 -32 -31 -32 -34 -35 -34 -33 -31 -20 -17 -17 -10 -12 -13 -12 -11 -10 -10 -11 -11 -12 -13 -13 -14 -14 -13 -13 -13
10 10 10 9 10 10 9 9 9 9 9 9 7 5 2 -6 -14 -28 -28 -28 -30 -32 -34 -34 -34 -31 -26 -21 -10 -8 -14 -13 -11 -12 -12 -12 -11 -10 -10 -11 -11 -12 -11 -12 -12 -12 -12
10 9 10 10 10 10 10 9 9 9 9 9 8 7 7 0 -12 -27 -28 -25 -28 -32 -34 -33 -32 -26 -17 -13 -10 -14 -12 -10 -10 -9 -10 -11 -11 -11 -10 -11 -10 -11 -10 -12 -13 -13 -12
7 9 9 8 10 10 9 10 9 10 9 9 9 8 7 4 -6 -23 -26 -28 -28 -31 -34 -31 -25 -21 -14 -12 -11 -12 -10 -9 -9 -9 -9 -9 -11 -11 -10 -10 -10 -10 -10 -10 -13 -13 -13
5 8 9 9 9 9 8 9 9 9 9 9 9 9 8 3 -5 -21 -22 -25 -25 -30 -33 -28 -20 -15 -12 -14 -10 -11 -10 -9 -7 -8 -8 -10 -11 -9 -9 -9 -10 -9 -10 -11 -12 -13 -13
-1 0 4 6 7 8 5 8 9 9 9 9 9 9 9 6 -7 -18 -22 -25 -26 -28 -26 -19 -14 -9 -11 -12 -11 -9 -9 -6 -7 -7 -8 -8 -9 -9 -10 -9 -9 -9 -8 -9 -9 -12 -11
-5 -0 -0 0 4 6 4 7 7 8 7 8 8 8 8 8 0 -21 -24 -22 -9 -9 -18 -13 -13 -12 -14 -12 -10 -9 -7 -6 -6 -6 -5 -6 -6 -9 -9 -7 -7 -7 -7 -7 -8 -10 -8
-15 -15 -6 -0 0 5 7 7 8 8 6 7 7 8 8 7 -12 -17 -23 -12 -15 -20 -17 -14 -12 -13 -13 -12 -9 -9 -6 -5 -4 -4 -5 -4 -4 -8 -7 -6 -5 -5 -5 -5 -8 -9 -8
-27 -27 -22 -14 -2 0 5 7 7 7 6 5 7 6 7 7 -9 -16 -15 -20 -23 -20 -9 -8 -7 -9 -9 -9 -8 -8 -5 -4 -3 -3 -4 -3 -6 -6 -5 -4 -3 -4 -4 -5 -6 -7 -6
-18 -23 -26 -27 -20 -8 -1 1 2 4 6 7 8 7 6 6 2 -10 -14 -11 -20 -12 -9 -9 -8 -9 -8 -7 -7 -7 -4 -4 -3 -2 -2 -3 -5 -5 -3 -2 -3 -1 -8 -8 -7 -3 -1
-11 -15 -14 -12 -11 -13 -6 -3 -0 3 7 7 7 5 6 6 3 -4 -8 -18 -15 -15 -3 -12 -10 -8 -8 -7 -6 -5 -4 -3 -2 -2 -1 -3 -3 -2 -1 -3 -5 -4 -5 -5 -4 -1 -1
-3 -3 -10 -9 -4 -11 -15 -12 -5 1 6 6 6 6 6 5 -2 -5 -9 -12 -8 -7 -7 -10 -11 -9 -8 -7 -6 -5 -4 -2 -2 -1 -1 -2 -4 -2 -2 -3 -3 -4 -2 -2 -2 -1 2
-1 -1 -5 -6 -6 -2 -3 -10 -10 -2 2 5 5 5 5 5 1 -7 -8 -6 -8 -5 -13 -9 -9 -8 -9 -6 -5 -5 -3 -0 -1 -1 -3 -4 -3 -3 -2 -2 -3 -2 0 2 2 4 -2
-1 -1 -4 -5 -6 -2 1 1 -7 -1 2 4 5 5 5 5 0 -1 -3 -0 -5 -8 -14 -10 -9 -8 -8 -4 -4 -3 -3 -1 -2 -3 -3 -1 -1 -2 -3 -2 -1 -1 0 2 5 3 2
-4 -3 -3 -5 -6 -1 -0 1 1 2 3 4 3 4 3 1 1 -4 -1 -3 -6 -7 -12 -8 -8 -8 -5 -4 -3 -3 -3 -3 -3 -5 -0 1 2 -4 -4 -4 -1 -1 1 -1 4 3 5
-6 -2 -2 -3 -3 -1 1 1 1 2 3 4 1 1 -0 -2 -2 -3 -1 -3 -7 -12 -10 -9 -10 -7 -3 -5 -3 -3 -3 -4 -4 -4 -6 -1 4 -3 -2 -2 -2 -0 -1 3 6 7 6
-3 -2 -2 -2 -2 -1 0 1 1 1 2 4 2 -0 -1 -1 -1 -0 1 -3 -10 -10 -8 -9 -5 -4 -4 -0 -3 -2 -3 -4 -5 -5 -5 -3 3 -1 -2 -1 -1 -0 2 3 4 3 6
-2 -1 -2 -2 -1 -1 0 1 1 1 1 1 1 0 -2 -1 -0 -0 -1 -6 -7 -8 -6 -5 -5 -3 -1 1 -3 5 0 -4 -6 -6 -1 -1 2 2 -1 -3 -4 -3 1 5 6 5 6
-2 -2 -3 -2 -0 -1 -0 0 0 1 2 1 0 -3 -2 -1 0 0 -2 -5 -5 -4 -6 -5 -4 -3 -2 3 2 1 1 -4 -4 -6 -1 1 2 3 -1 1 -3 -1 -1 0 3 6 6
-2 -2 -1 -1 -1 -1 0 0 1 1 1 1 -0 -1 -2 -2 -0 -1 -0 -4 -3 -3 -4 -3 -3 -3 -3 -2 -3 -0 1 -4 -4 -6 -4 0 1 4 3 2 1 2 0 1 6 8 4
-2 -2 -2 -3 -3 -1 -0 0 0 1 1 1 -1 -1 -3 -0 -0 -1 -3 -4 -4 -2 -3 -4 -2 -5 -6 -2 -3 -2 -3 -4 -7 -2 -2 -1 3 3 2 3 3 1 2 2 2 3 4
-1 -2 -3 -0 4 6 6 1 0 1 1 1 -0 -1 -3 -4 -3 -0 -2 -2 -5 -5 -5 -5 -5 -5 -7 -7 -7 -5 -6 -6 -7 -3 -5 0 4 5 4 4 4 2 2 0 1 1 0
-1 -1 1 4 5 5 6 3 1 1 1 1 -1 -2 -3 -3 -2 1 -0 -5 -6 -6 -5 -7 -7 -6 -6 -8 -8 -9 -8 -8 -9 -7 -3 1 2 3 3 4 2 3 2 1 0 -1 1
1 3 4 3 3 4 5 2 1 1 1 0 -1 -3 -1 0 -0 -2 -5 -6 -6 -7 -6 -6 -6 -6 -6 -7 -5 -5 -6 -7 -6 -5 -5 1 1 2 2 4 6 3 -1 -2 -2 -2 -3
1 3 3 3 3 2 2 1 1 1 1 0 -2 -2 -1 1 -3 -3 -3 -4 -6 -5 -6 -6 -6 -5 -6 -6 -8 -2 0 1 0 -1 -1 -2 1 2 4 5 3 1 -0 -0 0 -1 -3
-0 2 3 2 1 0 0 0 0 1 1 -1 -3 -3 -2 -0 -1 -4 -4 -5 -4 -5 -4 -4 -4 -6 -3 -7 -3 -2 -2 -4 0 2 0 -1 0 2 2 4 4 0 -2 -1 -1 1 -4
-1 -1 -0 -0 -0 -0 -0 -0 -0 -0 -0 -1 -1 -2 -2 -2 -3 -4 -5 -5 -7 -7 -6 -5 -3 -3 -3 -2 -2 -2 -1 -2 0 -0 2 2 0 1 2 2 1 -2 -1 -1 2 1 -4
-1 -1 -1 -1 -1 -1 -0 -0 -0 -1 -2 -5 -4 -5 -8 -2 -2 -4 -6 -5 -6 -8 -6 -4 -4 -3 -4 -2 -5 -2 -2 -2 0 -1 -1 -2 -0 1 1 2 3 -2 0 2 -1 -3 -4
-2 -1 -1 -1 -1 -1 -1 -1 -1 -3 -4 -6 -6 -5 -5 -5 -2 -7 -8 -9 -9 -13 -6 -4 -4 -5 -5 -4 -4 -3 -1 0 -1 2 -2 0 -1 -1 -1 -0 -2 -2 -2 -2 -3 -3 -4
Wind_Speed
33 31 28 26 26 22 19 17 15 15 13 12 13 11 12 13 14 13 12 13 16 17 17 19 21 21 17 5 0 2 6 6 7 7 8 8 5 5 5 6 10 15 9 9 11 18 24
27 29 27 27 28 24 23 20 17 17 17 15 14 13 15 13 15 14 12 14 15 17 18 18 19 18 11 8 2 3 3 6 6 7 7 7 5 5 7 6 7 8 16 19 21 22 25
30 30 32 31 28 25 24 23 21 21 19 18 18 14 14 14 16 14 14 15 15 16 17 17 17 14 6 1 5 4 3 7 10 6 6 6 4 5 5 8 5 14 20 19 16 5 4
32 31 32 28 32 31 27 28 26 26 24 21 20 18 17 13 16 16 15 14 16 16 16 15 14 10 2 7 4 4 8 7 7 7 5 3 3 5 6 7 12 12 11 6 3 10 15
31 30 25 29 34 30 27 26 29 27 26 27 23 20 20 17 14 16 16 14 16 15 15 14 10 3 3 5 1 7 6 4 8 3 3 3 2 4 5 8 10 6 10 16 14 3 5
28 32 36 34 33 30 34 29 27 28 32 28 28 23 22 20 16 16 15 13 14 14 13 8 3 3 5 4 3 3 1 7 1 3 2 3 3 6 6 6 8 14 17 17 18 4 21
25 30 29 30 32 33 30 29 27 27 26 28 26 26 23 24 18 16 13 9 5 5 3 5 2 5 2 3 1 1 3 2 1 2 4 2 6 7 6 5 10 13 16 20 19 20 16
23 25 26 30 29 31 27 27 33 30 24 26 26 27 25 24 16 16 13 5 7 4 8 11 12 11 7 3 3 2 2 3 3 4 3 5 8 1 3 5 9 13 17 18 18 6 18
23 23 24 26 29 31 34 33 29 36 34 31 30 26 26 26 16 17 15 12 9 6 6 5 7 7 5 3 2 2 1 2 3 5 6 8 2 2 7 10 11 14 14 16 20 21 20
24 25 24 25 27 30 33 34 36 35 38 32 38 27 26 27 17 17 15 14 7 2 5 7 8 7 6 4 5 3 1 2 4 4 5 8 1 5 9 12 11 14 7 13 17 16 11
25 25 25 25 25 26 31 32 34 32 33 41 39 24 28 31 14 19 12 13 7 6 5 10 7 8 6 4 4 5 2 2 5 4 4 3 6 9 11 7 5 7 14 15 20 18 15
26 26 25 25 29 29 30 31 29 31 28 38 42 33 38 30 18 14 14 11 9 5 9 8 9 9 8 4 4 1 3 2 3 5 9 16 10 9 5 6 8 14 16 19 13 8 7
28 30 28 28 29 32 29 28 27 29 33 38 41 42 40 31 27 21 17 14 5 8 6 9 9 8 8 5 6 2 4 4 1 4 4 7 11 5 7 6 3 5 12 6 4 7 7
33 33 33 33 33 31 33 30 25 26 29 34 48 43 38 37 29 27 26 4 13 8 9 5 8 11 7 6 5 3 6 5 3 1 5 5 5 9 7 2 6 13 5 5 6 9 15
37 38 39 37 36 34 34 33 23 21 25 34 48 42 41 34 28 31 22 9 7 13 10 14 10 9 7 6 4 5 5 4 3 2 2 3 5 2 7 11 7 3 7 5 7 16 7
41 41 43 42 41 38 38 36 25 23 26 46 42 38 31 33 32 33 7 14 19 1 10 14 12 7 11 11 9 7 7 7 6 2 2 1 6 3 2 7 13 12 5 6 3 5 5
43 46 47 47 46 45 43 43 39 23 38 50 38 17 23 30 33 22 9 12 15 7 9 7 7 6 6 6 7 6 6 6 4 4 4 2 3 2 9 2 10 6 6 6 4 7 5
47 50 52 52 52 49 48 47 39 30 46 55 32 5 33 36 14 9 11 12 6 13 6 3 5 6 8 7 6 4 8 2 5 1 2 2 3 5 10 6 5 8 9 10 6 5 3
51 56 58 58 56 56 58 54 53 37 59 47 21 9 43 36 8 12 11 12 7 11 9 7 4 4 3 6 4 5 6 3 5 1 1 3 3 5 5 7 3 4 14 15 13 3 5
54 59 61 66 69 71 69 62 58 50 70 48 16 6 14 18 10 13 18 21 11 9 7 4 5 6 6 5 4 8 5 4 5 4 3 1 3 4 4 3 4 7 14 14 4 4 4
56 65 71 74 76 77 82 81 74 65 78 53 17 8 20 13 18 18 20 17 17 9 9 11 5 8 9 5 7 6 6 5 4 4 5 3 4 4 5 10 1 11 12 14 11 2 5
59 69 71 62 59 56 64 84 81 78 84 56 20 10 27 23 28 19 22 20 22 13 16 17 9 14 11 6 5 10 7 5 3 6 2 4 1 2 7 13 7 5 11 7 8 11 12
53 62 49 46 41 42 52 72 83 94 88 57 31 26 32 26 20 18 21 22 22 17 2 15 13 10 11 8 4 2 4 3 2 2 2 1 1 2 2 8 6 4 5 6 10 13 3
33 33 19 13 26 41 56 72 93 96 77 46 37 40 14 13 18 18 22 20 21 16 11 12 19 11 7 7 1 2 6 10 9 10 11 3 2 2 4 6 6 6 6 10 12 8 7
10 13 14 29 46 61 76 88 85 72 57 42 46 34 13 13 19 13 15 12 19 16 14 17 8 6 12 6 4 5 4 4 4 5 9 9 1 3 3 2 6 5 4 3 1 5 6
22 37 42 63 73 75 74 69 63 54 42 49 40 26 27 15 14 25 19 26 13 8 8 6 8 9 6 4 4 6 5 6 6 7 6 7 9 4 3 5 6 5 1 2 3 4 4
21 42 59 68 64 63 59 55 52 48 44 40 36 29 34 12 14 25 10 16 13 11 6 9 8 5 5 5 5 4 4 1 6 6 6 5 5 8 5 5 4 5 6 3 5 5 7
28 38 51 55 56 53 52 55 49 43 40 40 39 35 25 13 13 12 18 12 14 15 9 13 7 3 4 6 4 3 3 3 4 2 3 3 3 3 3 4 4 9 3 3 9 12 11
38 43 49 44 40 42 44 41 40 39 39 31 39 32 23 21 15 23 20 16 11 11 16 11 2 9 5 3 3 3 3 4 6 4 3 3 2 0 3 3 6 9 11 12 12 13 11
Wind_Direction
260 256 259 260 258 260 260 264 271 278 275 274 279 281 293 295 297 302 306 309 314 319 323 327 330 331 341 308 262 313 4 15 14 12 15 14 17 332 308 293 286 260 286 292 287 288 288
265 267 256 264 257 257 256 258 265 276 276 276 271 279 284 285 291 294 298 302 308 316 320 323 324 327 340 297 150 95 21 10 357 4 11 9 346 319 283 273 281 316 291 287 283 280 277
260 265 261 258 256 256 259 255 255 260 270 275 275 272 272 278 285 285 294 299 306 313 315 319 321 325 323 167 125 56 5 319 312 327 329 336 312 290 316 281 296 291 291 294 284 301 284
249 249 259 260 256 255 262 261 255 256 259 266 272 273 272 275 279 284 290 298 304 309 312 317 315 315 257 160 122 337 307 313 320 312 288 283 274 270 259 293 276 289 284 293 197 297 276
245 244 248 252 260 257 259 256 253 254 255 261 262 272 278 275 269 276 283 292 299 303 305 307 308 275 193 169 150 317 310 317 317 309 275 257 232 274 264 286 284 172 300 307 308 235 290
249 247 250 252 251 259 261 258 262 261 256 255 272 265 269 273 266 265 274 287 295 297 292 301 238 188 186 197 282 295 299 344 350 314 174 186 229 261 235 266 315 307 308 302 306 314 314
252 250 250 251 251 254 261 254 267 254 265 268 271 271 272 267 257 255 266 283 302 269 243 233 214 262 175 254 251 199 339 339 319 247 251 221 264 256 344 319 295 293 292 293 301 313 309
259 256 253 250 252 248 249 248 262 254 259 261 261 272 275 276 238 247 247 232 253 260 290 261 239 223 221 236 257 204 22 274 272 274 214 221 259 79 299 290 284 288 291 293 302 300 315
264 265 262 256 249 248 244 243 246 262 264 262 257 260 265 266 219 240 239 234 262 275 260 222 206 192 182 200 235 196 337 277 251 246 234 268 323 242 283 289 285 279 280 293 293 315 293
271 270 265 261 256 250 248 249 251 257 260 256 251 253 258 249 241 226 226 233 225 266 270 164 196 181 162 179 204 221 258 269 216 284 290 274 182 242 278 274 268 282 304 296 293 311 318
270 270 271 268 260 256 250 248 245 244 254 254 242 262 251 258 230 204 230 200 218 199 259 126 153 156 165 211 121 181 248 196 256 269 257 70 250 265 269 285 266 283 319 290 291 289 298
268 270 268 268 267 268 262 253 247 237 243 247 248 257 249 227 211 201 187 200 189 203 244 161 149 184 167 170 168 276 157 214 286 267 243 262 275 272 259 286 266 287 296 280 272 275 253
265 267 267 269 272 272 266 260 246 235 231 244 248 257 246 237 206 174 169 168 209 219 135 175 171 182 188 165 164 183 162 143 233 278 219 281 218 199 238 298 176 248 292 302 255 219 301
262 265 267 269 270 268 260 260 250 233 232 235 235 244 233 231 203 189 168 142 232 218 177 126 156 159 193 162 175 161 175 175 160 333 294 312 190 190 169 282 306 295 284 301 301 311 311
264 266 268 268 265 266 260 252 248 226 232 232 217 225 213 204 194 176 154 195 227 219 154 152 146 180 176 175 201 181 207 173 154 56 355 297 257 254 261 281 243 41 246 343 276 259 269
265 264 265 269 264 259 256 246 239 217 229 218 184 196 193 178 168 173 174 196 229 319 136 163 184 194 194 178 187 191 187 167 165 165 5 116 282 273 314 273 244 239 349 279 203 278 292
268 264 265 269 264 261 245 248 245 212 209 210 183 175 194 176 169 174 187 212 217 196 156 176 171 156 190 180 191 156 181 145 180 179 284 214 205 301 304 185 320 247 247 235 293 269 286
267 267 270 268 262 256 241 241 234 227 199 183 173 160 171 164 175 199 211 211 182 176 179 124 151 119 176 167 166 163 201 145 141 184 198 129 260 281 287 318 22 300 319 316 253 259 284
269 273 274 269 262 252 241 236 231 213 204 178 154 118 162 171 191 188 219 206 172 173 191 171 144 127 160 170 141 194 199 173 196 283 269 159 223 296 147 175 45 6 335 307 285 291 252
277 275 269 263 258 253 244 230 218 208 190 182 152 133 186 205 208 183 194 196 161 174 169 163 124 125 151 152 193 186 194 195 187 241 229 271 257 253 300 337 318 340 353 340 268 210 99
276 276 271 271 268 260 251 232 217 205 188 180 168 188 178 188 201 196 194 184 167 152 199 168 164 200 166 158 175 191 189 195 182 156 194 259 263 240 206 171 290 32 10 12 41 53 12
280 278 282 274 259 241 233 216 205 194 186 183 162 158 176 169 180 192 185 191 181 161 165 188 194 187 181 185 192 182 164 187 172 167 252 168 261 251 263 238 239 60 28 27 50 74 91
284 284 277 258 243 226 203 196 187 183 178 180 185 170 151 168 179 185 191 182 182 153 112 188 174 166 191 201 205 192 217 210 222 215 198 222 293 264 261 180 198 184 45 51 66 40 20
282 278 262 224 194 194 180 172 175 171 174 178 160 149 147 164 181 184 178 169 165 169 139 152 163 169 154 162 139 269 252 252 240 237 228 195 215 249 284 172 229 98 125 105 88 56 44
30 191 148 150 148 150 154 156 159 164 173 179 155 150 148 160 167 153 158 149 139 120 122 138 138 133 152 161 197 176 166 172 170 190 192 205 260 260 261 250 104 154 165 198 288 67 29
88 128 148 138 134 132 138 145 152 161 166 155 158 156 137 134 176 162 158 155 145 132 134 120 119 143 152 198 197 206 183 167 168 157 156 181 237 258 293 264 219 71 64 220 277 147 51
109 115 124 127 129 132 136 142 146 142 142 144 145 149 141 107 146 161 143 152 147 141 129 143 150 151 183 184 194 186 159 216 169 190 175 196 215 242 245 261 114 22 328 208 234 100 106
128 125 119 122 122 121 124 125 128 131 142 153 141 149 143 108 125 144 145 142 143 152 153 146 131 187 176 194 196 153 176 132 158 136 206 220 220 214 236 239 182 357 169 273 111 115 109
130 142 139 128 116 116 118 122 132 131 146 158 152 167 136 122 124 124 121 133 149 148 136 159 100 141 154 161 198 133 152 168 182 162 156 186 323 25 337 51 67 48 76 108 121 118 109
Height
1518 1520 1523 1523 1526 1528 1530 1530 1532 1533 1532 1530 1531 1530 1532 1530 1531 1531 1529 1529 1530 1529 1527 1526 1525 1524 1522 1524 1523 1519 1517 1516 1516 1516 1515 1513 1512 1512 1510 1509 1508 1504 1502 1504 1503 1504 1502
1511 1512 1515 1517 1520 1521 1524 1526 1527 1529 1530 1528 1527 1527 1528 1527 1529 1529 1526 1525 1527 1526 1525 1524 1523 1522 1521 1521 1520 1519 1517 1517 1516 1515 1514 1514 1513 1513 1511 1509 1508 1503 1504 1502 1499 1497 1495
1504 1506 1509 1510 1514 1516 1518 1520 1521 1524 1525 1526 1525 1524 1524 1523 1525 1526 1525 1523 1523 1524 1523 1522 1521 1520 1520 1520 1518 1517 1517 1516 1514 1513 1513 1512 1512 1513 1510 1505 1506 1503 1498 1491 1485 1487 1488
1497 1500 1501 1503 1505 1509 1510 1514 1516 1519 1520 1521 1522 1521 1523 1520 1522 1523 1523 1522 1520 1520 1521 1519 1519 1517 1518 1516 1516 1515 1515 1515 1512 1511 1511 1509 1509 1510 1510 1507 1501 1496 1493 1485 1481 1483 1484
1491 1493 1495 1497 1499 1501 1503 1506 1509 1512 1514 1516 1517 1517 1520 1521 1518 1519 1520 1519 1519 1518 1517 1517 1517 1517 1516 1514 1515 1513 1512 1513 1511 1510 1509 1508 1509 1508 1506 1500 1490 1488 1484 1480 1476 1479 1482
1483 1486 1489 1491 1493 1496 1498 1500 1501 1506 1507 1510 1512 1513 1514 1519 1517 1516 1517 1516 1516 1515 1513 1515 1514 1518 1515 1515 1512 1511 1510 1509 1509 1510 1509 1508 1506 1502 1499 1495 1484 1484 1482 1477 1474 1474 1474
1476 1479 1481 1483 1485 1487 1490 1493 1495 1499 1500 1503 1506 1509 1510 1513 1516 1514 1517 1516 1517 1516 1511 1510 1512 1511 1511 1511 1511 1510 1508 1509 1508 1508 1502 1505 1499 1489 1491 1496 1497 1493 1488 1479 1474 1470 1473
1468 1470 1473 1476 1478 1482 1484 1487 1490 1491 1494 1498 1500 1505 1507 1509 1512 1513 1513 1515 1514 1513 1510 1506 1505 1507 1507 1509 1510 1509 1507 1509 1506 1500 1504 1501 1489 1492 1498 1498 1498 1492 1485 1476 1466 1468 1469
1462 1464 1465 1468 1471 1475 1478 1481 1483 1486 1489 1491 1494 1498 1504 1504 1507 1512 1510 1510 1512 1512 1509 1504 1503 1504 1506 1508 1507 1508 1507 1506 1503 1501 1500 1495 1488 1496 1496 1492 1491 1485 1480 1474 1471 1466 1458
1455 1458 1460 1461 1463 1467 1470 1473 1476 1479 1482 1486 1489 1493 1497 1499 1505 1506 1507 1508 1509 1511 1502 1494 1500 1501 1502 1504 1505 1505 1506 1506 1502 1498 1498 1493 1492 1493 1491 1489 1486 1483 1475 1475 1471 1466 1457
1449 1450 1452 1453 1455 1458 1462 1465 1467 1472 1473 1476 1482 1487 1491 1494 1496 1500 1506 1505 1508 1510 1502 1491 1498 1499 1499 1502 1504 1502 1502 1503 1498 1497 1501 1485 1489 1488 1487 1483 1484 1476 1476 1475 1471 1465 1459
1441 1443 1444 1445 1448 1449 1454 1458 1460 1465 1467 1470 1474 1481 1487 1486 1494 1498 1502 1506 1509 1508 1492 1488 1491 1496 1494 1499 1501 1502 1498 1501 1501 1498 1495 1489 1489 1491 1483 1483 1481 1479 1476 1465 1460 1460 1453
1432 1433 1435 1438 1440 1442 1445 1449 1454 1457 1462 1464 1467 1472 1479 1481 1487 1492 1501 1506 1509 1488 1480 1485 1482 1492 1489 1493 1497 1499 1495 1494 1492 1489 1480 1480 1479 1483 1485 1478 1473 1479 1470 1455 1452 1448 1428
1422 1423 1425 1428 1430 1434 1437 1441 1446 1450 1455 1459 1460 1468 1471 1475 1481 1489 1500 1505 1493 1458 1467 1478 1481 1486 1487 1492 1493 1496 1495 1489 1495 1493 1486 1482 1471 1477 1480 1477 1476 1472 1472 1467 1471 1445 1437
1410 1412 1414 1417 1420 1425 1428 1433 1439 1444 1449 1453 1455 1464 1465 1469 1476 1484 1491 1496 1470 1462 1462 1472 1483 1482 1486 1491 1490 1492 1489 1485 1489 1491 1493 1489 1485 1475 1476 1475 1477 1468 1468 1464 1470 1451 1455
1398 1400 1402 1404 1409 1413 1420 1425 1432 1438 1443 1445 1451 1458 1465 1468 1474 1483 1488 1474 1471 1464 1465 1469 1467 1475 1479 1482 1486 1483 1487 1487 1488 1491 1494 1492 1495 1473 1474 1473 1468 1469 1468 1467 1468 1457 1440
1384 1386 1388 1390 1395 1401 1409 1414 1424 1434 1436 1439 1447 1458 1460 1466 1477 1479 1476 1470 1460 1468 1469 1471 1473 1476 1477 1486 1482 1480 1484 1487 1487 1489 1492 1490 1501 1472 1470 1463 1463 1463 1466 1468 1467 1452 1445
1367 1368 1370 1373 1378 1385 1394 1403 1412 1424 1431 1433 1437 1452 1458 1467 1475 1471 1464 1462 1462 1465 1470 1471 1473 1475 1480 1486 1479 1486 1485 1482 1487 1490 1486 1489 1487 1477 1465 1462 1468 1463 1462 1467 1459 1445 1445
1350 1350 1350 1352 1357 1364 1374 1387 1397 1410 1412 1426 1435 1449 1460 1465 1453 1454 1460 1462 1459 1467 1467 1471 1472 1475 1482 1484 1485 1489 1487 1486 1488 1487 1484 1486 1480 1469 1452 1463 1462 1469 1472 1469 1466 1459 1450
1331 1326 1323 1323 1328 1336 1349 1365 1379 1394 1403 1421 1432 1446 1457 1454 1450 1449 1457 1456 1458 1465 1467 1470 1472 1475 1480 1480 1482 1488 1486 1485 1486 1486 1488 1488 1478 1480 1471 1480 1484 1481 1476 1465 1455 1447 1458
1308 1300 1292 1288 1288 1293 1306 1328 1352 1373 1390 1407 1414 1420 1421 1431 1442 1444 1450 1449 1449 1459 1465 1467 1471 1469 1470 1481 1481 1482 1481 1482 1483 1485 1486 1484 1484 1479 1481 1485 1479 1482 1483 1475 1466 1463 1458
1287 1271 1258 1251 1248 1250 1259 1282 1318 1348 1374 1390 1395 1404 1412 1419 1440 1442 1440 1442 1445 1450 1453 1460 1462 1465 1467 1471 1473 1475 1475 1477 1477 1483 1482 1484 1481 1483 1479 1477 1478 1482 1483 1476 1474 1476 1480
1268 1247 1233 1226 1223 1228 1237 1260 1297 1325 1352 1367 1381 1393 1405 1419 1430 1433 1432 1432 1435 1444 1455 1455 1458 1463 1468 1469 1473 1474 1476 1477 1478 1478 1480 1484 1484 1481 1461 1473 1468 1469 1486 1486 1485 1482 1478
1252 1234 1223 1213 1210 1218 1233 1258 1292 1321 1347 1360 1371 1381 1395 1410 1417 1419 1426 1430 1434 1439 1446 1454 1459 1461 1468 1470 1473 1475 1476 1476 1477 1477 1481 1482 1484 1483 1460 1470 1459 1481 1485 1484 1486 1489 1488
1250 1236 1231 1225 1225 1234 1252 1278 1308 1331 1349 1360 1369 1375 1388 1403 1408 1417 1424 1428 1438 1444 1448 1452 1460 1463 1467 1471 1470 1467 1469 1470 1470 1472 1477 1481 1483 1471 1465 1456 1478 1483 1486 1483 1482 1492 1493
1258 1249 1246 1246 1253 1265 1281 1299 1315 1332 1345 1356 1366 1373 1381 1394 1409 1416 1423 1428 1433 1441 1450 1456 1461 1463 1466 1466 1464 1455 1454 1449 1462 1471 1476 1478 1480 1475 1463 1457 1454 1477 1485 1488 1488 1482 1494
1273 1267 1266 1269 1276 1286 1297 1311 1325 1338 1348 1358 1366 1376 1384 1396 1409 1416 1416 1426 1432 1437 1445 1455 1460 1463 1465 1461 1457 1453 1452 1455 1456 1458 1470 1470 1470 1468 1463 1457 1472 1485 1487 1488 1478 1488 1493
1283 1284 1282 1286 1293 1301 1311 1322 1333 1343 1353 1361 1368 1377 1382 1392 1408 1414 1420 1425 1431 1434 1439 1452 1458 1462 1462 1458 1452 1454 1452 1455 1461 1462 1463 1462 1465 1465 1465 1460 1465 1487 1485 1480 1489 1491 1493
1290 1294 1299 1301 1305 1313 1321 1330 1342 1350 1359 1364 1369 1377 1384 1392 1409 1416 1421 1426 1430 1434 1439 1448 1449 1450 1453 1452 1454 1455 1455 1459 1455 1462 1468 1467 1469 1468 1478 1478 1488 1488 1486 1487 1490 1493 1495